Theta_e
347 338 332 332 330 332 334 341 344 346 345 344 342 339 339 335 336 332 324 324 327 332 335 332 333 338 337 333 332 337 336 334 335 334 333 334 335 337 339 341 344 345 343 343 343 342 342 341 340 339 339 340 340 340 340 339 339 339 338 338 338 336 334 333 331 330 328 328 329 332 332 333 333 333 332 328 327 330 330 328 328 331 331 331 332
347 337 331 331 330 331 334 340 344 347 345 344 341 339 338 336 336 329 324 327 330 335 334 333 336 338 339 337 332 334 334 334 335 335 335 334 336 339 341 341 344 344 344 344 343 343 342 341 340 339 339 340 340 340 340 340 339 339 338 337 336 333 331 331 330 329 327 326 325 327 331 333 333 333 332 328 327 329 330 329 329 329 329 330 331
345 337 331 330 329 330 332 339 343 347 345 344 341 340 337 336 334 327 326 328 333 335 334 335 338 339 339 340 335 332 333 334 335 337 337 338 339 340 342 343 343 343 344 344 344 343 342 342 340 339 339 339 339 339 339 339 338 338 337 333 332 331 331 331 332 331 331 333 330 330 331 332 333 333 332 330 329 329 329 329 329 328 329 330 331
345 338 331 330 330 329 330 338 343 346 345 344 341 340 337 336 332 327 326 329 334 335 335 337 339 340 339 340 338 335 332 334 337 339 340 341 343 342 343 343 343 342 343 343 343 342 341 341 340 340 339 339 339 338 339 338 338 336 333 329 330 333 334 333 333 334 334 335 335 333 332 332 332 332 333 332 330 329 329 329 329 328 330 331 331
345 337 331 330 329 329 330 339 343 345 345 344 342 340 338 335 332 327 327 331 335 335 336 338 340 341 340 340 339 337 334 336 338 340 342 342 343 342 343 342 342 342 342 341 342 342 341 341 340 340 339 338 337 337 338 337 337 333 328 330 333 334 335 335 335 335 335 336 338 336 332 332 332 332 333 333 331 330 330 329 329 328 329 330 331
345 339 336 334 333 333 333 340 343 345 344 344 342 340 338 335 332 328 328 333 336 335 337 339 341 342 341 338 335 333 334 337 339 340 341 341 341 341 341 341 341 341 341 340 340 341 341 341 340 339 339 338 337 337 337 337 336 330 328 333 334 335 335 335 336 336 337 337 340 339 333 332 331 332 333 333 332 329 329 328 328 328 328 328 328
343 342 343 338 338 338 335 340 343 344 345 344 342 340 338 336 332 328 331 335 336 337 340 341 341 342 339 335 331 331 332 335 338 340 340 340 341 340 341 341 341 340 340 340 340 340 340 341 340 339 338 337 336 336 336 335 332 326 329 335 335 335 335 335 336 336 337 337 339 338 334 332 332 332 333 333 332 329 329 328 328 328 328 328 327
342 344 346 341 340 340 336 340 343 344 344 344 342 341 339 336 331 329 333 335 337 341 341 341 342 341 337 332 332 332 333 335 337 338 339 339 339 340 341 341 341 340 339 340 340 339 340 341 340 339 337 336 336 335 333 330 327 326 331 335 335 335 336 336 337 337 338 338 337 337 335 333 331 333 334 334 332 330 330 329 329 328 328 328 327
343 344 346 343 342 340 339 342 343 344 344 343 342 341 339 335 330 332 335 336 340 342 341 341 341 340 338 336 334 333 333 335 335 336 337 338 338 338 338 339 339 339 339 339 340 339 341 341 341 339 336 336 335 333 330 327 326 329 333 335 335 336 337 337 337 337 337 338 337 336 334 333 330 332 334 334 332 330 329 329 329 328 329 328 328
344 345 346 344 343 340 340 342 342 343 343 342 342 341 338 332 331 334 335 338 342 342 342 341 341 341 339 336 332 331 334 336 336 336 337 338 337 336 335 336 338 339 339 339 340 339 340 341 340 338 335 336 334 332 330 329 329 329 333 335 336 337 337 337 337 334 332 334 335 335 333 332 331 332 333 333 331 328 327 329 329 328 329 328 328
345 346 345 343 343 339 338 340 341 342 342 342 341 339 336 332 333 334 337 341 342 341 342 341 341 340 336 332 332 334 336 337 337 337 337 338 337 336 335 336 337 337 337 338 338 339 340 340 340 338 335 334 334 334 333 333 332 330 332 335 336 337 337 338 339 336 331 332 334 335 334 331 330 331 332 332 330 328 328 329 328 328 328 328 328
346 347 345 341 339 336 336 338 340 342 342 341 340 337 334 332 334 336 339 341 341 341 341 341 340 336 331 331 336 338 338 337 337 337 336 337 337 338 338 336 335 336 336 337 337 338 340 339 340 337 334 334 335 337 335 334 333 332 333 335 336 337 338 338 337 336 333 334 335 335 333 331 330 331 332 331 331 329 329 329 328 328 328 328 328
348 348 345 338 335 334 334 337 340 342 341 339 338 336 334 334 335 337 340 340 339 340 340 340 337 331 329 333 338 339 338 336 336 336 335 335 337 339 338 336 336 338 338 338 338 338 339 339 339 336 334 334 335 335 334 333 332 332 333 335 336 336 336 337 336 335 334 335 335 333 332 331 332 333 332 331 331 329 329 328 328 328 328 327 328
348 348 345 338 337 334 332 336 340 341 340 339 336 336 335 335 336 337 339 338 338 340 339 335 331 328 331 335 338 338 336 335 335 335 335 335 336 338 338 337 337 337 336 337 336 337 339 339 338 336 334 334 333 333 334 333 332 331 332 334 335 336 336 337 338 335 333 334 335 333 331 332 333 333 332 332 332 330 329 329 329 328 328 328 327
349 348 343 339 340 337 335 337 340 341 340 338 337 336 336 336 336 339 339 337 338 339 335 331 329 330 335 338 338 338 337 336 336 335 335 335 336 338 339 337 335 333 332 334 335 337 338 339 338 336 334 333 332 333 333 333 332 330 331 333 335 336 337 338 338 334 334 335 335 333 330 331 333 333 333 332 332 330 329 328 328 328 327 327 327
348 347 343 339 342 342 341 340 341 342 341 339 338 336 336 336 338 340 338 337 336 333 331 331 333 335 338 339 339 338 338 338 337 336 335 336 337 337 337 335 332 331 331 333 336 338 338 338 337 336 334 334 334 334 333 332 332 330 331 333 334 336 337 338 338 335 335 335 334 333 328 329 332 332 332 332 331 330 329 327 327 328 328 327 327
347 346 343 341 343 343 342 341 340 341 341 339 337 337 338 338 340 339 337 335 331 329 334 337 338 339 339 339 339 339 339 339 337 336 335 336 338 337 337 335 333 332 331 333 336 337 338 338 337 336 335 335 334 333 332 331 331 330 331 333 335 336 337 337 337 336 334 334 334 332 327 327 331 332 332 332 330 330 329 328 327 328 327 327 327
347 345 344 342 343 342 342 341 339 340 340 338 338 340 338 337 338 336 333 330 330 334 339 341 339 339 339 339 340 339 339 338 336 336 335 337 337 337 337 336 334 332 330 332 333 335 337 337 336 336 335 335 334 332 332 332 332 332 332 333 336 337 337 337 336 335 335 336 335 333 330 327 329 332 332 331 331 330 329 328 327 326 326 326 326
347 345 344 342 342 342 342 341 340 339 336 335 339 338 334 334 334 332 331 331 334 338 339 340 338 338 339 340 340 339 338 337 336 336 335 336 335 336 336 336 335 333 330 329 329 331 334 334 334 334 334 334 332 331 333 331 332 333 333 334 336 336 336 338 336 334 335 336 335 333 329 326 328 332 332 331 331 330 329 328 327 326 327 327 326
347 345 343 342 342 342 342 342 340 338 334 336 337 334 332 333 332 332 334 334 336 337 338 339 338 338 339 338 338 337 336 335 336 336 335 335 335 336 336 337 335 331 329 326 326 327 329 330 330 330 331 332 332 331 332 331 332 333 333 334 335 336 336 338 336 334 336 336 335 332 327 324 328 332 332 331 331 329 329 328 327 327 326 324 326
347 345 343 342 341 342 342 342 340 336 335 337 334 331 332 332 333 335 336 337 336 336 338 338 339 339 336 335 336 335 336 335 336 335 334 334 335 336 336 335 332 328 327 326 325 325 325 326 326 327 328 331 333 333 332 331 332 334 333 333 333 335 337 337 335 334 335 335 334 330 326 325 329 332 332 331 331 329 329 329 328 327 324 323 324
346 345 343 341 342 342 343 341 338 337 337 336 332 331 333 333 333 336 336 337 336 336 336 337 339 338 335 335 335 335 335 335 336 335 333 334 335 335 335 332 329 326 326 326 326 326 325 325 324 324 326 330 332 332 332 331 331 333 333 332 331 334 337 337 334 334 335 334 332 328 326 326 330 332 332 331 330 329 329 329 329 328 325 321 320
346 345 344 342 341 341 343 342 339 339 337 335 335 335 336 335 335 336 336 336 336 336 335 338 340 337 335 335 335 335 333 333 335 336 335 336 335 333 333 331 329 326 325 327 327 327 326 325 325 325 325 328 330 331 331 330 330 331 333 333 331 334 337 335 333 334 334 334 332 328 325 327 331 333 332 331 329 330 330 330 329 328 325 317 314
346 345 344 342 341 341 341 341 341 341 337 336 338 338 339 336 336 336 335 335 336 335 335 339 339 335 334 334 335 334 332 333 335 337 338 337 334 330 332 333 330 327 326 327 326 327 326 325 325 325 326 328 329 331 332 332 331 330 332 332 333 336 337 334 333 333 333 334 331 327 325 327 332 333 332 331 329 330 330 330 330 328 325 316 311
345 345 344 341 340 340 339 340 341 341 337 336 338 339 339 337 337 337 336 335 334 334 337 339 337 334 333 335 336 335 334 334 335 337 339 336 333 330 332 334 333 330 327 329 329 329 328 327 327 326 328 331 331 333 333 333 333 332 332 334 335 336 336 334 333 334 334 333 332 327 324 328 333 332 332 330 330 331 331 331 330 328 325 318 312
344 344 344 341 340 340 339 340 340 341 339 337 339 339 339 338 338 338 336 336 336 336 339 340 337 334 333 336 337 336 336 336 335 337 337 336 334 333 335 335 336 335 331 332 334 333 332 332 332 330 330 332 333 334 334 333 333 333 332 334 336 336 335 334 333 334 334 333 332 327 323 329 333 333 332 330 330 330 331 331 330 328 326 322 318
344 344 343 341 340 341 339 340 340 341 341 339 340 340 339 339 339 338 338 338 338 337 339 340 338 335 333 335 335 335 336 337 337 337 336 336 336 336 336 335 336 337 335 335 336 336 335 335 335 333 332 333 333 333 333 332 331 331 331 333 335 335 335 334 334 335 334 333 331 326 323 328 332 332 332 331 330 330 330 330 329 329 327 326 324
343 343 342 341 341 341 339 340 341 341 341 341 340 340 340 339 338 338 338 338 338 338 338 339 338 335 333 334 334 333 336 337 337 336 336 336 336 336 336 334 334 335 336 335 335 336 335 335 335 334 333 332 331 331 332 331 331 330 330 332 333 334 334 334 334 335 335 333 330 325 323 326 331 332 332 331 330 330 330 329 328 328 328 328 327
343 342 342 340 340 341 340 340 342 341 341 340 340 340 340 339 339 339 339 338 338 338 337 337 337 335 333 334 334 333 335 337 336 336 337 336 336 336 335 334 334 335 335 333 334 334 334 334 334 333 333 332 331 331 330 331 330 330 330 330 331 333 333 333 332 335 336 334 330 325 322 325 330 332 332 331 330 330 330 329 328 327 328 328 327
343 343 342 338 338 338 339 340 341 341 340 341 340 340 340 339 340 339 339 338 337 337 335 335 336 336 334 333 334 334 334 336 335 334 336 336 335 335 334 334 333 333 334 333 333 334 334 334 334 333 332 331 331 331 331 331 330 330 330 329 330 331 332 333 332 334 336 335 330 325 323 324 329 332 332 331 331 330 330 330 328 327 328 328 328
344 343 341 338 337 338 340 340 340 340 340 340 340 340 340 340 340 339 337 337 335 335 335 335 335 335 335 334 334 334 333 335 335 334 335 335 335 334 334 334 333 333 333 333 333 333 333 333 332 331 331 331 331 331 331 330 331 330 329 330 330 330 331 332 332 333 335 335 331 326 323 325 329 331 331 331 331 330 331 330 329 327 327 327 328
344 343 342 339 337 337 339 339 338 339 339 340 340 340 340 340 339 337 335 335 335 336 336 335 334 334 335 334 334 335 335 335 336 335 335 335 334 334 334 334 334 333 334 334 333 332 332 332 331 330 331 332 332 332 331 330 330 330 330 330 330 329 330 331 331 332 333 335 332 326 324 325 327 330 331 331 330 330 330 330 329 328 327 327 328
345 343 341 338 336 336 337 337 337 337 338 339 339 339 340 339 336 334 335 336 337 337 335 335 333 334 335 334 334 335 335 336 337 337 336 334 334 334 334 335 336 334 334 334 333 332 333 332 332 331 333 334 333 332 332 330 330 331 330 329 329 329 329 330 331 331 332 334 333 328 325 325 325 326 329 330 330 330 330 330 330 329 327 327 328
343 340 338 335 334 336 335 336 336 336 337 337 336 337 338 337 333 333 335 336 337 337 335 335 335 334 335 334 334 335 336 335 336 337 336 334 334 335 334 335 335 335 334 334 333 333 333 333 332 332 333 333 333 333 332 331 330 330 330 329 329 329 329 329 329 331 332 333 332 331 328 326 324 324 327 329 329 329 330 330 329 329 328 328 327
339 337 336 334 335 335 335 336 336 336 337 337 335 335 336 335 334 334 335 336 337 336 335 335 335 335 334 335 336 335 336 336 335 336 335 334 334 335 334 334 334 334 333 333 332 333 333 332 332 333 333 332 332 333 332 331 330 330 330 330 329 329 329 329 329 330 331 331 332 332 330 328 327 326 326 327 327 328 329 329 328 328 328 328 327
335 335 335 335 335 335 335 336 335 335 335 335 334 333 334 335 335 336 336 336 337 336 335 334 334 333 333 336 336 335 336 336 336 335 334 334 335 335 335 335 334 334 333 332 332 333 333 333 333 334 334 333 332 333 331 330 330 330 330 330 329 329 330 330 329 329 329 330 332 333 331 330 329 328 327 326 326 326 327 328 328 327 328 328 327
334 336 336 334 334 334 335 335 335 335 333 333 335 334 335 335 334 336 337 336 336 336 335 334 335 335 335 337 336 335 336 336 335 335 334 334 335 335 335 335 334 334 333 333 333 333 334 334 334 334 333 332 333 333 331 330 329 330 330 330 330 330 330 331 331 331 329 329 331 332 331 331 330 329 328 326 326 326 325 326 327 326 327 326 326
334 336 336 335 334 333 334 336 335 334 333 333 336 336 335 333 330 333 335 335 334 334 333 333 335 336 336 336 335 335 336 335 335 335 334 334 334 334 334 334 334 334 333 333 334 333 333 334 334 334 332 332 333 333 332 330 330 330 330 330 331 330 329 330 331 332 330 329 330 331 331 330 330 330 330 328 327 327 327 327 327 326 326 324 324
334 336 336 336 336 334 335 336 335 334 334 335 336 336 335 334 333 333 334 333 332 331 331 333 334 335 335 335 335 335 335 335 335 334 334 334 334 332 332 332 332 333 332 333 333 333 333 333 333 333 332 332 333 333 332 331 331 330 330 330 331 331 329 330 332 332 331 330 329 330 330 330 330 330 330 329 327 327 327 327 328 327 327 325 324
335 336 336 336 336 334 335 335 334 334 335 336 336 336 336 335 335 334 332 331 330 330 331 331 332 332 332 333 333 334 334 335 334 334 334 334 333 332 332 332 332 333 333 333 333 333 334 332 333 333 332 332 333 333 333 331 330 330 330 330 330 331 330 329 330 331 331 331 330 330 330 330 329 329 330 330 329 327 328 328 329 330 329 328 327
336 336 336 336 335 334 334 334 334 334 336 336 336 335 335 335 333 331 330 331 331 330 330 330 331 331 330 331 331 332 332 333 333 333 333 333 332 333 333 332 332 333 333 332 332 333 333 333 333 333 333 333 333 332 331 331 331 331 331 331 331 331 331 330 330 331 331 331 332 331 330 330 330 330 330 330 330 329 329 329 330 331 329 328 328
336 336 336 335 335 335 334 334 334 333 333 334 334 334 333 332 331 330 329 329 329 330 330 330 330 330 330 330 330 330 330 330 331 331 331 331 331 332 333 333 333 332 332 332 332 333 333 333 333 333 333 333 331 331 331 331 331 331 331 331 331 331 331 330 330 331 331 332 332 331 330 330 331 331 331 330 330 330 330 329 329 329 328 328 328
335 335 335 334 335 336 334 333 333 330 330 332 333 332 331 330 330 330 328 328 329 329 329 328 328 328 329 329 329 329 329 328 328 329 329 329 330 330 330 331 331 331 331 331 332 333 332 332 332 332 332 331 330 330 331 330 330 331 331 332 332 332 332 330 329 330 330 331 331 330 329 330 330 330 330 329 329 329 329 329 328 328 328 328 329
335 335 335 336 335 335 334 333 332 330 332 332 332 331 331 331 331 330 330 328 327 325 325 325 325 326 328 328 328 328 327 327 326 326 327 328 329 329 328 329 330 330 329 329 331 332 331 331 332 332 331 331 330 329 330 329 329 330 331 332 332 332 333 331 329 329 330 331 330 329 329 329 330 330 329 329 328 328 328 328 328 328 328 329 329
336 336 336 336 335 335 333 332 332 333 333 331 332 332 332 332 331 330 329 327 324 324 324 324 324 325 326 327 328 327 326 326 326 326 327 328 328 328 328 328 329 328 328 328 329 330 330 330 331 331 330 331 330 329 330 329 329 330 329 332 333 333 333 331 330 330 330 329 328 328 329 329 329 329 328 329 329 328 328 328 328 328 327 328 327
336 336 336 336 336 335 332 332 333 333 331 330 332 332 333 333 331 329 327 325 325 326 325 323 323 324 325 326 327 327 326 325 326 326 327 327 328 327 327 327 327 327 327 328 328 328 329 329 330 329 329 331 330 329 329 329 330 330 329 331 332 332 332 331 331 331 329 328 327 327 328 328 329 329 328 328 328 328 328 328 329 328 327 326 326
336 336 335 336 336 334 332 333 334 332 330 330 331 331 333 333 330 327 326 326 327 327 326 324 323 323 324 325 326 326 326 325 325 325 326 327 327 327 327 327 326 326 326 327 327 327 328 329 330 329 329 330 329 329 330 329 329 329 329 330 330 330 331 331 331 332 330 328 327 327 327 327 327 327 328 328 328 328 328 329 328 327 327 327 327
335 335 334 335 333 333 334 334 333 331 329 328 328 330 332 332 329 327 327 328 328 327 326 324 323 322 322 323 325 325 325 325 325 325 325 326 326 326 326 326 325 325 326 326 327 328 328 329 330 329 330 330 329 329 329 328 328 328 329 329 329 330 330 330 330 331 330 329 327 326 326 326 327 327 327 326 326 327 326 326 326 327 327 326 326
334 334 334 334 332 332 334 334 333 331 327 325 327 330 331 329 328 329 329 329 328 326 325 324 323 322 322 323 325 326 325 324 324 325 325 325 325 325 325 325 324 323 325 326 327 327 328 328 329 330 330 329 329 330 329 328 329 329 329 328 328 329 328 329 329 329 329 329 328 326 325 326 326 326 325 325 325 325 322 321 322 323 324 324 324
334 333 333 333 332 331 333 334 334 331 326 325 328 331 330 329 329 330 329 327 326 325 324 323 324 324 324 323 324 325 325 325 324 324 325 325 324 324 324 323 323 324 324 325 326 326 326 326 327 329 330 330 330 330 329 329 329 329 328 327 327 328 327 328 328 328 328 328 328 326 325 325 326 325 324 324 324 324 322 319 318 318 318 318 319
333 332 332 334 333 333 335 335 333 332 329 328 330 331 330 330 330 329 326 325 324 324 324 324 324 324 323 323 324 325 325 324 323 323 323 323 322 322 322 323 323 324 324 323 324 324 324 325 326 327 328 329 329 329 328 328 328 328 327 327 327 328 328 327 327 327 328 328 328 327 323 323 324 324 322 320 320 321 320 319 317 315 314 313 313
Wind_Speed
21 28 28 24 22 20 19 19 20 20 21 21 21 21 22 22 21 20 20 21 21 20 20 20 18 18 18 18 18 18 19 20 20 19 18 16 16 15 15 15 16 15 15 16 16 15 13 12 12 13 15 14 13 13 13 13 13 13 14 14 15 15 15 14 14 14 15 16 16 17 17 16 17 17 17 15 15 19 18 16 15 16 18 18 17
23 28 28 25 22 20 20 19 20 21 21 22 21 22 22 22 21 21 21 21 21 20 21 20 18 18 17 17 17 18 19 20 19 18 17 15 15 15 15 15 15 14 13 14 13 13 12 12 12 13 14 13 12 12 12 12 12 13 13 13 12 13 14 15 16 16 17 17 17 18 18 17 17 17 18 18 17 18 18 17 15 15 17 18 18
25 27 27 25 22 21 21 20 21 21 21 21 21 21 22 22 22 21 21 21 21 21 21 20 18 18 17 17 17 17 18 19 18 16 15 14 14 14 15 15 14 13 13 12 12 12 11 11 12 13 13 12 12 11 10 10 10 10 10 10 12 15 16 17 17 16 18 19 20 20 19 18 18 18 17 19 18 18 17 17 16 16 17 17 18
26 26 26 25 22 21 20 21 21 21 21 21 21 21 22 23 22 22 21 22 22 22 21 19 18 17 16 15 16 16 17 17 17 15 15 14 13 14 14 14 13 12 11 11 12 11 11 11 12 13 12 12 12 10 9 9 9 9 10 13 15 17 17 17 15 15 17 17 19 19 18 19 18 17 16 17 17 17 17 18 17 16 16 17 18
26 25 25 24 21 20 20 21 21 21 21 21 21 21 23 23 22 21 21 22 22 22 20 18 17 16 15 14 15 15 16 16 15 15 14 13 13 14 13 12 12 11 10 10 11 11 11 11 12 12 11 11 11 10 9 9 8 9 13 17 18 17 16 16 14 13 12 10 12 14 16 18 17 16 16 16 16 17 17 16 17 16 15 17 18
24 24 24 22 20 19 20 21 21 21 21 21 22 22 23 23 22 21 22 24 23 21 19 18 17 15 14 14 14 14 15 15 15 15 13 13 14 13 12 11 11 11 10 10 10 10 10 11 11 10 10 10 10 10 9 8 7 10 16 18 18 17 16 14 13 10 9 6 7 11 14 15 15 16 14 15 16 16 17 17 17 16 15 15 16
24 23 20 20 18 18 21 21 22 22 22 22 22 22 23 23 21 22 24 24 23 20 18 17 16 14 13 13 14 14 15 15 15 15 14 14 14 13 12 12 11 11 10 10 10 10 10 10 10 9 9 10 9 9 8 7 8 13 17 19 18 16 15 12 10 8 7 7 7 10 13 13 15 15 13 14 16 17 17 17 17 16 15 15 15
23 21 19 19 17 18 21 21 22 22 22 22 22 22 22 22 22 24 25 24 22 19 18 17 15 14 13 13 13 13 14 14 14 14 14 15 14 13 13 13 12 11 10 10 10 10 10 9 9 8 8 8 8 8 9 9 11 16 18 18 17 15 13 10 9 7 7 9 10 12 13 13 15 14 12 13 15 16 17 16 16 16 15 15 15
21 20 19 19 18 20 22 22 23 22 22 22 22 23 22 22 23 25 25 23 20 18 17 16 15 14 13 12 12 12 13 13 14 13 14 13 12 12 11 12 12 11 11 11 11 10 9 9 8 8 7 8 8 9 10 12 14 17 17 16 14 13 12 11 12 11 12 12 13 16 15 14 15 13 12 13 13 13 14 16 16 16 15 15 15
21 20 19 18 19 22 23 23 22 22 22 22 23 23 23 23 24 26 24 21 18 18 17 16 15 14 13 12 12 13 13 13 12 12 12 12 12 11 11 13 12 11 12 12 12 10 9 8 8 8 8 9 9 11 12 13 14 15 14 14 13 12 12 11 12 15 16 11 11 15 14 13 14 13 12 12 10 10 14 16 15 16 16 15 16
21 20 20 19 21 23 23 22 22 22 22 22 23 23 24 24 26 26 23 20 18 18 17 16 15 14 14 14 14 14 14 13 12 11 11 10 10 10 11 13 12 11 12 12 11 10 8 8 8 9 7 8 10 11 11 11 12 12 12 12 12 11 11 10 10 13 14 11 13 14 13 12 14 13 12 11 10 11 14 15 15 15 15 16 15
21 21 20 21 23 24 23 22 22 22 23 23 23 24 24 26 26 24 21 19 18 18 17 16 16 15 16 15 15 15 14 14 13 12 10 9 9 9 10 11 12 11 11 10 10 10 9 8 9 8 6 9 10 9 9 9 9 10 11 11 10 10 10 10 11 12 11 12 15 15 13 13 14 13 11 10 11 12 14 14 15 15 15 15 15
23 21 21 24 25 24 23 23 23 23 23 23 24 25 25 26 25 23 20 18 17 18 17 17 17 17 16 16 15 14 14 14 14 13 11 10 8 9 9 10 11 11 10 9 9 9 9 9 8 6 6 9 9 7 7 6 7 9 10 10 10 9 9 10 12 12 10 11 13 12 12 13 12 12 11 11 11 12 14 14 14 14 15 14 15
23 21 22 24 24 25 24 23 24 24 24 24 25 26 26 26 24 23 19 17 18 18 17 18 18 17 15 15 15 14 15 15 14 13 12 10 9 9 9 10 10 10 10 8 8 8 9 9 7 5 6 9 8 5 5 4 5 7 8 10 10 9 8 10 12 11 10 12 13 12 12 13 12 12 12 11 11 11 12 13 14 14 14 14 14
22 21 23 24 21 24 25 24 25 24 24 24 25 25 26 25 23 21 18 17 18 18 18 18 17 15 14 15 16 15 15 15 14 12 11 10 10 10 10 9 8 8 9 8 8 8 9 8 7 6 6 9 8 5 4 3 3 5 7 9 9 9 8 9 10 10 11 12 13 11 11 13 13 11 11 10 10 10 12 13 13 13 13 14 14
21 21 23 24 20 20 22 23 24 23 24 24 25 25 25 24 22 19 18 18 19 19 19 17 16 14 14 15 15 14 14 13 12 11 10 10 10 10 10 9 7 7 7 7 8 9 9 8 7 6 6 8 7 6 3 2 2 3 6 8 8 8 8 9 11 10 9 9 10 10 10 13 13 10 10 9 9 11 11 11 12 13 13 13 13
20 20 22 23 21 19 19 19 21 22 23 23 24 24 23 22 20 18 18 19 19 19 17 16 15 14 14 15 15 14 13 12 12 10 10 9 8 8 8 7 7 5 6 7 7 8 8 8 7 6 6 6 5 4 3 2 2 2 4 7 8 8 8 9 11 9 7 10 13 11 11 12 12 10 10 9 10 10 9 11 12 12 12 12 12
19 19 21 22 21 20 19 19 20 20 21 23 23 22 21 20 19 19 20 20 19 18 17 15 14 14 13 13 14 13 12 12 12 10 9 9 8 7 7 6 5 4 4 5 6 6 7 8 7 7 6 6 5 4 5 5 3 3 5 7 10 9 9 10 11 9 8 13 15 11 9 10 11 11 10 9 10 10 10 11 11 11 12 12 12
18 19 20 21 21 20 20 20 20 20 21 21 20 20 20 19 19 20 20 19 18 17 16 15 14 14 14 13 13 13 13 13 12 10 9 8 7 7 6 5 4 3 3 4 5 5 6 8 8 7 7 6 6 6 7 6 5 5 6 9 11 9 8 7 8 8 7 10 11 8 7 7 10 12 10 9 9 10 10 9 10 12 12 11 12
17 20 20 20 20 20 21 22 22 21 22 19 17 18 19 19 19 19 18 18 18 17 16 14 14 14 14 14 15 14 13 12 11 9 8 7 7 7 6 5 3 3 3 3 4 5 6 7 7 8 7 7 7 7 7 5 5 5 7 11 12 9 7 5 6 9 8 8 7 6 6 5 10 13 11 10 9 10 10 8 10 10 10 10 11
16 18 19 21 21 22 22 22 23 24 23 20 18 19 18 19 20 19 18 18 17 16 16 15 15 14 14 15 15 15 12 11 9 7 7 7 7 7 6 5 3 2 2 3 3 4 4 5 6 6 7 7 7 7 6 5 5 5 6 10 11 9 6 5 7 9 8 9 7 6 6 6 11 12 11 10 9 10 9 9 9 8 8 10 10
17 18 18 20 22 24 22 22 25 25 25 23 22 21 20 20 21 21 20 19 18 17 17 16 17 16 14 14 14 15 13 11 8 7 7 6 7 6 6 5 3 2 3 3 3 3 3 2 3 4 5 7 7 7 5 4 4 4 5 8 11 8 5 4 7 8 7 8 7 6 6 7 12 12 11 11 9 9 9 8 8 7 7 8 8
18 18 18 19 22 26 24 25 25 24 25 25 23 21 21 21 21 21 20 20 19 17 17 16 18 16 14 14 14 14 13 12 10 8 7 6 6 6 5 5 3 3 3 2 2 2 2 2 2 3 4 6 7 8 6 4 2 4 5 7 9 7 4 4 6 7 7 7 6 5 5 8 13 12 11 11 9 9 9 8 7 6 6 7 7
18 18 20 20 23 26 25 25 23 23 27 27 23 21 21 22 22 22 21 21 19 18 17 14 17 17 14 14 13 14 14 13 11 8 8 7 7 7 7 5 3 3 3 3 1 1 1 2 1 3 5 6 6 7 8 7 4 3 5 7 7 5 7 7 6 8 8 7 6 5 5 10 13 13 11 11 10 9 8 7 6 6 7 8 8
17 18 19 20 23 26 25 26 23 23 27 27 22 21 22 22 23 22 22 21 19 19 15 11 15 16 15 13 12 13 14 13 11 8 7 8 7 8 7 5 3 2 3 3 1 2 2 2 1 2 4 4 5 8 9 9 7 4 4 5 6 6 9 9 8 10 10 8 7 5 5 11 13 12 11 11 10 9 8 7 5 5 6 8 10
16 16 17 20 24 25 24 27 25 22 25 26 20 20 22 22 22 21 20 18 17 17 12 10 14 15 14 12 10 12 13 12 10 7 7 7 8 8 7 6 5 3 4 4 4 4 3 3 4 5 6 7 9 10 9 7 7 7 6 7 7 7 9 8 8 11 12 9 8 5 6 11 14 12 11 11 10 10 9 7 6 5 6 9 11
17 16 18 22 26 25 25 26 24 21 22 23 19 18 19 19 19 18 17 14 13 13 10 10 13 14 12 8 10 11 12 10 9 10 9 8 8 8 9 9 8 6 6 6 6 5 4 5 7 10 11 12 12 10 7 7 7 7 7 8 8 8 9 9 8 10 11 10 8 6 8 12 14 12 10 10 10 10 9 7 6 5 6 8 10
16 15 18 23 25 25 26 25 23 22 21 21 19 18 18 19 19 17 15 12 11 11 11 11 12 13 11 8 12 11 11 9 9 11 10 9 8 8 10 10 10 8 7 7 6 5 6 7 7 10 12 13 13 12 11 8 8 8 6 7 8 8 8 8 8 9 10 10 9 8 10 12 13 12 10 10 9 9 9 7 6 5 6 6 7
16 16 18 22 25 25 26 26 24 23 22 20 19 19 20 20 19 17 15 13 12 11 12 12 12 13 10 10 12 9 10 10 8 8 7 9 9 9 10 9 10 9 6 7 7 5 7 8 6 6 9 10 10 12 11 8 8 9 8 7 9 9 6 6 8 10 10 9 10 9 10 11 12 12 10 9 9 8 8 8 7 6 6 5 5
17 17 17 22 26 24 25 26 24 24 22 20 19 19 19 19 17 15 14 13 12 12 12 13 13 14 11 11 11 9 9 9 7 6 7 9 9 9 8 7 9 8 6 6 7 5 6 7 6 5 6 7 7 7 8 7 7 6 7 9 9 8 6 6 9 11 11 9 10 10 10 11 13 13 11 9 9 9 8 8 7 6 6 5 5
17 17 17 21 25 24 23 22 22 23 22 20 20 19 19 17 16 15 15 14 13 12 12 13 14 12 12 11 9 9 8 7 8 8 9 8 7 8 7 5 6 6 5 5 5 5 6 7 6 6 5 5 5 6 7 7 8 6 6 8 7 8 7 7 10 11 13 11 10 11 12 12 13 13 12 11 9 9 10 9 8 8 7 6 6
15 17 17 19 24 26 21 16 18 22 21 19 19 19 18 16 15 17 17 14 13 12 11 13 12 10 12 11 9 10 11 11 10 10 11 9 6 6 6 5 5 6 6 6 6 6 6 6 6 5 4 2 4 6 6 7 8 9 9 8 7 8 8 8 10 9 13 13 11 12 13 12 11 12 12 13 11 10 10 10 9 9 8 7 6
13 15 14 16 21 24 17 12 15 18 16 15 15 15 14 15 16 18 17 14 13 12 11 12 11 9 11 10 11 14 13 12 11 9 9 8 7 8 7 6 5 7 8 8 7 6 6 4 4 4 3 1 3 5 6 7 7 7 9 8 8 8 2 7 9 7 8 12 13 12 12 10 10 11 12 13 12 11 10 9 9 7 7 7 6
13 14 11 14 17 21 17 14 13 11 9 12 13 11 11 13 16 16 15 14 14 12 10 9 9 10 11 11 13 14 11 10 9 8 7 6 7 7 8 7 7 7 9 10 8 6 7 4 3 3 3 2 3 4 5 6 7 5 6 8 11 15 10 4 2 3 7 11 13 13 12 10 9 10 11 12 11 11 10 9 9 7 6 6 6
15 15 12 16 19 22 19 16 15 13 11 12 14 12 11 12 14 13 12 12 11 9 7 8 9 11 13 14 14 12 10 9 8 8 7 7 7 7 7 7 7 7 8 9 8 6 5 4 3 2 1 2 3 4 5 5 6 5 5 10 13 16 19 17 14 8 7 9 12 14 14 13 12 10 10 11 10 11 10 10 10 8 7 7 6
17 14 13 18 23 24 21 18 19 16 15 17 16 14 14 12 11 8 7 9 9 7 6 8 11 11 11 11 11 10 10 9 8 8 8 7 7 6 7 6 6 6 6 6 5 5 4 2 2 1 0 1 2 3 5 5 5 5 6 10 9 11 17 15 13 10 7 9 13 14 12 12 12 12 11 11 10 10 9 10 9 8 8 8 6
14 13 15 19 22 23 22 22 20 17 18 20 18 16 14 12 9 4 4 7 8 8 8 8 10 9 8 9 9 10 9 8 7 7 7 8 8 7 7 7 6 6 6 5 4 5 4 3 3 2 1 1 1 2 3 4 3 4 7 10 6 5 10 9 12 12 9 10 13 13 11 11 12 12 12 11 10 10 8 8 7 6 6 7 8
14 16 19 20 21 22 24 23 19 18 19 20 20 18 15 11 9 5 4 5 6 9 11 9 8 9 8 8 9 10 9 8 7 7 7 8 8 6 7 8 7 6 6 6 5 4 4 3 3 0 0 2 1 1 2 2 3 5 5 8 8 4 5 8 13 13 10 11 13 13 12 12 14 13 12 11 10 10 10 9 7 6 5 6 8
20 22 20 20 22 22 23 23 20 21 20 20 21 20 17 14 12 9 9 7 6 7 10 9 7 9 9 8 8 9 8 8 7 6 7 7 7 5 5 6 7 6 5 6 5 3 3 3 3 1 0 1 1 2 3 2 3 6 5 7 9 6 7 9 12 13 11 11 10 11 12 12 13 12 11 11 10 10 10 9 8 7 5 6 6
24 23 20 21 22 21 22 22 21 22 21 20 20 19 18 15 12 11 10 8 7 7 9 8 8 10 9 8 8 8 7 8 6 6 6 5 5 4 5 6 5 5 5 5 5 3 2 2 3 2 1 2 2 1 1 1 4 6 7 8 6 5 8 10 10 12 12 11 10 9 11 12 12 10 10 10 10 9 9 8 7 5 4 5 4
23 22 21 21 21 21 21 21 20 19 20 20 19 18 17 12 10 9 9 10 9 8 8 9 9 9 10 10 9 8 8 8 7 6 6 4 4 4 4 4 3 3 4 4 5 4 2 2 2 2 1 2 2 0 1 3 6 6 6 7 4 3 9 11 10 12 13 12 11 9 9 9 10 11 11 10 10 9 8 8 6 3 4 6 5
24 22 22 23 21 18 17 17 17 16 17 18 17 15 13 10 10 9 9 9 9 9 9 9 9 8 9 10 9 8 8 8 7 7 7 6 6 5 4 3 2 3 2 3 4 4 3 2 3 3 2 1 2 1 2 5 6 5 5 5 2 2 8 11 11 11 12 12 11 9 8 8 8 9 9 9 8 7 6 6 3 2 4 7 7
23 22 21 22 19 15 16 16 16 17 17 15 13 12 13 11 7 7 10 10 11 12 11 9 9 9 9 9 8 8 7 7 7 8 8 7 5 5 5 3 2 2 2 2 3 2 3 3 3 3 2 2 2 1 3 5 6 5 4 4 1 1 4 8 9 9 9 10 9 9 10 8 7 7 7 7 5 4 5 4 2 2 4 6 7
19 19 20 20 17 14 15 16 16 17 16 13 12 13 15 12 8 8 11 14 15 14 12 10 10 10 10 9 9 8 7 7 7 8 8 7 6 5 5 4 3 3 2 2 2 1 2 4 3 2 2 4 2 1 2 5 6 5 1 1 2 1 1 4 6 7 6 7 7 8 9 7 7 9 8 6 5 6 8 5 4 5 5 6 7
16 16 17 19 19 15 15 16 17 17 15 13 14 16 16 13 11 11 12 13 12 11 11 10 9 10 10 9 8 8 7 7 8 9 8 7 7 6 5 6 5 4 2 3 3 2 3 4 4 2 3 5 4 2 1 2 6 5 1 1 1 0 1 5 7 4 5 7 7 8 9 7 8 10 9 8 8 9 9 7 6 7 8 9 8
15 16 15 18 19 18 18 18 17 17 16 16 16 18 16 13 11 11 11 11 9 9 9 8 8 10 10 8 8 8 8 8 8 8 8 8 8 7 7 7 7 6 5 6 5 5 5 6 5 3 4 6 5 4 2 2 4 4 3 2 3 2 2 5 5 2 4 7 9 11 12 11 12 12 10 10 10 10 11 10 9 8 10 11 10
17 18 18 19 19 20 20 20 20 19 18 18 17 18 17 13 10 9 9 8 8 9 8 8 9 10 9 8 9 8 8 8 8 7 7 8 8 8 8 7 7 7 8 9 8 8 8 8 7 6 7 7 6 6 5 4 3 3 3 5 5 3 4 5 3 3 3 5 10 14 14 13 14 14 14 14 13 13 14 13 11 11 11 11 9
21 22 22 23 23 23 22 21 22 20 19 18 17 17 15 12 9 8 8 8 9 10 9 9 10 9 8 8 8 8 7 7 7 8 8 8 8 8 7 6 5 6 9 11 10 10 10 11 10 9 10 8 7 8 7 6 6 5 4 6 5 3 4 5 3 3 3 3 7 10 12 13 15 14 15 17 18 18 17 14 12 12 12 11 10
23 22 23 25 26 25 24 22 22 21 20 18 17 16 13 11 10 9 9 10 11 10 9 9 9 8 7 8 8 8 8 8 7 8 8 7 8 8 7 7 8 8 11 13 11 11 13 14 13 12 11 10 9 9 8 8 8 6 5 6 6 3 3 4 4 5 6 4 4 5 10 13 13 14 15 17 19 20 19 17 14 12 11 10 9
21 23 24 27 29 27 26 25 24 24 23 20 18 16 13 13 11 10 11 13 12 10 10 10 9 8 7 8 8 8 8 8 7 7 7 8 10 10 8 8 8 9 11 11 11 13 13 14 14 13 13 12 12 11 10 10 8 7 7 8 8 5 3 3 4 6 7 6 5 5 9 11 9 11 15 16 18 17 18 17 16 14 14 13 13
21 25 26 28 32 31 29 29 27 26 25 22 20 17 16 15 12 11 14 14 12 12 12 10 9 8 8 8 8 8 7 7 7 7 7 8 11 11 9 9 9 9 10 10 11 13 12 12 14 15 15 15 15 14 13 12 11 11 10 9 9 7 5 4 5 7 7 7 7 5 9 13 11 12 15 17 18 17 17 17 15 14 14 15 15
Wind_Direction
131 143 144 149 154 155 155 153 155 159 161 159 157 158 158 156 150 147 144 144 143 139 137 132 124 119 117 117 119 119 120 121 121 120 119 115 110 106 100 98 99 100 97 95 96 99 96 92 90 91 93 89 90 92 92 95 98 97 95 95 92 91 90 89 88 88 90 90 88 86 80 69 62 59 58 62 71 70 67 74 83 81 74 70 66
131 143 144 148 155 156 156 156 158 160 161 160 158 159 159 154 149 147 145 146 144 141 138 132 127 125 123 122 125 126 125 126 125 123 121 116 111 108 103 100 100 98 97 97 97 97 94 90 90 94 97 92 90 93 95 97 102 102 97 96 93 90 90 89 88 88 88 85 85 87 82 73 66 63 60 60 65 65 65 71 79 81 76 72 69
131 142 144 150 155 156 157 157 160 160 161 160 159 160 158 153 149 147 147 147 145 143 139 133 130 129 129 126 129 132 132 131 128 126 122 117 114 111 109 107 106 103 101 101 101 100 97 95 94 95 98 95 91 92 96 98 104 105 95 92 96 100 98 95 95 95 94 86 79 81 80 76 69 64 62 62 63 62 64 68 75 80 76 71 69
130 140 147 150 155 156 155 157 160 162 161 160 160 160 157 152 149 149 149 148 146 144 141 136 134 133 133 131 132 136 138 136 132 128 123 119 116 114 113 112 111 111 110 105 105 102 100 100 97 98 97 97 96 94 95 101 110 105 92 96 105 106 101 99 101 103 106 95 79 77 75 74 71 65 64 64 65 65 66 70 74 75 75 69 69
128 141 147 148 153 154 154 156 160 162 161 161 160 159 156 153 151 150 150 149 147 145 142 139 138 135 135 135 135 138 143 140 134 129 125 122 117 114 113 113 114 116 115 110 109 108 106 104 102 102 100 100 100 99 97 108 116 101 99 106 109 105 101 99 101 103 112 106 80 78 75 74 71 66 64 64 66 69 71 73 74 73 74 67 68
128 139 141 144 149 151 155 156 159 161 161 161 160 159 156 155 153 151 151 150 149 146 144 143 140 136 135 136 136 137 140 140 135 130 127 123 115 116 121 120 121 122 120 116 117 114 111 109 107 106 104 103 102 103 102 116 120 105 109 111 105 100 97 93 92 90 97 99 73 84 83 75 72 68 64 64 66 71 75 76 76 76 76 70 70
128 131 133 141 144 149 156 156 158 160 159 161 160 159 158 158 154 152 152 151 149 147 146 144 141 136 136 135 133 132 133 137 137 134 133 129 124 131 132 126 126 124 122 123 123 120 117 114 112 111 109 107 107 108 108 123 117 111 114 109 102 98 95 91 89 77 72 62 56 97 97 80 77 71 66 69 71 75 77 77 78 78 77 76 76
127 128 129 141 144 148 154 155 156 158 160 162 161 161 161 159 154 152 153 151 150 148 147 144 142 138 136 133 130 130 131 135 137 138 138 137 138 143 140 135 132 124 123 125 124 125 123 119 117 116 116 114 115 113 113 122 114 115 116 109 105 101 96 90 80 59 57 56 61 100 100 83 81 74 71 77 77 77 78 77 77 78 78 78 79
129 129 131 142 145 148 152 153 155 158 162 162 162 163 162 158 153 153 153 152 150 148 147 146 143 138 135 134 133 133 133 134 133 134 140 143 146 148 148 144 134 128 133 133 134 134 128 123 123 123 122 121 121 117 116 118 116 118 117 111 107 101 94 85 77 64 63 70 84 99 93 87 86 79 77 80 83 82 82 81 79 79 79 79 81
132 131 136 144 145 150 152 152 156 158 162 163 163 162 160 157 154 155 154 152 150 148 149 147 144 140 138 138 139 136 133 133 131 132 139 144 146 144 145 144 136 141 149 145 144 140 133 130 131 132 130 129 125 116 113 114 116 119 116 111 104 96 88 78 78 77 75 83 103 101 92 91 89 85 80 78 82 80 83 83 81 82 79 80 81
138 136 142 148 146 152 153 154 157 158 161 161 161 161 158 156 156 156 155 152 150 150 150 149 145 143 142 140 140 137 137 136 134 135 137 141 143 139 137 142 140 147 154 151 150 141 137 142 142 143 144 139 128 116 111 109 112 117 116 111 104 94 83 71 66 75 83 94 102 96 89 88 88 89 83 80 77 75 84 85 84 84 82 82 80
138 136 145 151 150 155 155 156 157 158 160 159 159 159 158 157 158 158 155 153 151 153 152 150 148 147 147 145 143 142 144 143 141 139 139 143 143 140 137 142 140 140 144 145 148 142 146 153 150 150 155 148 135 123 117 109 109 115 118 114 106 94 82 71 62 73 87 97 103 100 91 88 91 92 87 86 77 77 87 88 87 87 86 84 81
135 134 146 151 153 158 157 157 158 158 159 159 160 158 159 159 159 160 158 157 155 155 153 151 151 154 155 152 151 150 151 150 148 144 144 149 151 153 145 145 142 138 138 136 146 151 156 161 156 153 157 159 148 132 128 122 116 117 121 119 111 100 86 75 69 81 95 98 107 105 92 90 95 95 92 91 80 78 86 87 88 88 88 86 83
133 135 147 150 152 159 158 159 159 159 159 158 159 158 159 161 163 164 162 160 158 157 155 154 158 161 160 158 158 155 153 154 151 147 148 150 154 162 156 152 148 144 143 140 149 160 162 163 163 159 161 167 165 151 146 147 130 120 123 125 120 108 94 82 77 88 101 101 105 103 99 100 94 93 96 96 89 84 87 88 87 88 90 88 86
131 137 146 150 150 157 158 159 159 157 158 157 159 161 163 165 167 167 164 163 160 160 157 157 164 165 161 161 161 156 154 155 154 149 145 143 145 153 155 156 152 149 151 148 149 159 164 165 168 169 171 172 174 177 168 165 143 126 127 132 128 112 94 79 80 99 109 109 109 104 105 104 97 98 101 98 93 87 87 91 90 89 90 87 87
131 137 145 150 146 151 154 155 157 154 155 157 162 166 168 169 168 169 167 165 162 159 157 162 167 165 161 161 159 156 154 157 159 153 143 139 142 148 153 156 154 149 151 150 148 161 169 174 181 180 181 179 179 184 183 173 156 137 132 140 137 115 97 82 86 106 118 127 128 114 107 106 107 109 104 101 95 93 92 91 90 89 89 87 87
132 137 143 146 141 145 149 150 154 155 158 163 169 171 170 172 172 171 168 164 162 159 159 165 162 154 154 154 154 155 156 160 163 158 147 143 146 150 153 155 152 149 151 151 153 166 173 179 191 195 193 192 196 207 210 193 172 155 137 141 138 118 100 89 93 108 119 132 132 119 108 108 114 114 107 105 101 99 95 90 92 93 92 89 86
134 139 140 140 139 141 144 148 151 152 162 172 175 175 173 175 173 167 164 162 161 161 161 159 152 146 143 144 151 157 159 163 165 163 155 150 158 159 156 158 154 152 160 163 165 171 180 188 196 205 208 208 215 227 219 201 185 165 146 146 137 123 111 99 98 106 113 123 128 122 109 108 117 119 113 109 106 102 96 95 94 92 90 88 85
138 141 141 140 140 141 142 143 142 148 168 176 171 172 173 170 165 160 160 162 164 164 159 153 149 143 137 144 153 158 160 162 166 167 162 161 168 170 167 166 162 164 174 179 181 183 191 201 202 208 216 221 218 209 204 196 186 166 150 152 143 135 128 114 115 125 129 127 130 123 106 113 122 122 120 116 111 105 104 98 90 93 93 91 89
139 143 146 146 145 144 142 138 141 158 173 169 160 164 165 160 157 159 164 168 170 165 157 154 149 141 144 157 156 150 155 161 166 167 165 166 169 177 180 178 185 187 182 178 187 198 205 212 211 211 215 214 204 193 194 191 181 165 156 156 151 145 123 92 126 137 137 135 135 119 105 120 125 124 126 122 116 110 110 101 93 97 95 95 94
144 149 153 153 150 146 141 141 152 167 171 162 159 160 157 159 160 165 171 172 171 165 162 158 147 147 161 166 155 146 152 160 162 165 165 172 176 178 183 193 214 196 176 168 167 182 198 213 209 208 209 200 189 185 191 193 185 168 161 162 162 155 111 77 122 130 126 131 131 115 113 127 125 128 131 126 119 114 112 107 104 99 87 94 99
153 156 160 156 151 147 145 153 163 168 168 163 161 160 160 166 169 173 176 174 172 169 171 164 149 156 171 166 155 151 155 160 158 163 168 178 185 182 190 199 206 189 184 173 155 152 157 175 186 189 190 187 188 188 190 196 194 180 169 175 178 161 108 102 136 139 135 133 125 113 123 135 130 133 134 128 123 120 119 113 111 101 84 90 98
161 161 161 156 150 152 155 161 164 163 167 166 161 160 165 173 175 176 178 175 171 172 175 165 150 159 173 164 159 160 164 166 161 163 166 175 188 189 197 199 195 187 186 182 156 122 101 99 127 159 173 187 194 188 189 207 210 191 185 187 185 169 150 168 158 156 160 151 134 120 130 137 136 140 138 132 128 125 124 119 112 95 80 85 93
163 164 160 154 153 161 163 161 160 160 167 169 164 161 166 176 177 175 178 176 173 175 176 163 149 158 173 165 162 168 172 171 161 157 166 177 193 194 194 193 194 183 186 208 191 89 59 57 87 158 174 185 198 205 218 231 230 212 198 188 189 187 184 190 183 164 172 178 149 122 134 138 140 144 141 135 130 130 130 125 115 89 75 82 87
161 164 159 151 155 164 165 163 162 162 170 171 166 163 166 174 176 177 179 176 175 177 175 152 142 159 173 167 169 175 174 173 164 160 172 180 191 196 195 191 200 201 194 203 251 292 319 357 343 217 194 201 247 265 262 244 214 210 224 217 225 210 189 192 188 160 164 178 148 119 138 143 143 146 143 137 132 133 136 130 116 88 76 83 85
162 168 159 150 156 161 163 168 166 163 170 170 164 161 166 171 173 176 177 172 171 174 171 142 139 160 173 169 178 183 176 172 168 171 183 184 186 194 195 191 196 208 205 194 205 250 293 295 279 271 270 278 273 269 279 264 217 210 228 236 231 203 185 183 177 163 168 170 146 133 152 149 148 148 143 139 137 135 134 128 118 95 86 87 83
165 173 160 151 156 160 164 169 166 163 168 167 160 157 163 169 170 171 170 166 163 167 169 146 139 160 175 171 168 175 175 169 166 174 184 189 193 201 200 200 198 199 213 208 202 219 237 247 255 258 272 287 279 270 284 278 245 233 230 228 220 202 191 185 171 165 176 170 150 150 156 152 149 148 145 141 138 138 136 128 121 105 101 94 81
169 172 160 153 155 159 165 166 165 166 165 162 157 155 160 164 166 164 162 160 158 162 166 153 144 158 175 169 152 160 171 170 180 181 180 185 196 212 211 211 209 207 218 221 220 230 233 239 255 264 275 287 292 303 316 305 277 267 249 230 222 210 189 188 184 168 179 177 157 149 150 150 149 148 148 145 140 140 140 131 124 115 119 114 86
172 167 153 154 159 159 165 164 161 164 161 158 156 155 160 162 160 157 156 158 157 159 161 155 156 165 177 169 160 177 179 172 193 195 182 182 190 211 215 214 214 214 220 226 229 235 237 237 245 263 266 272 291 311 317 304 284 278 263 247 230 215 181 185 196 174 184 184 155 144 145 147 150 152 150 147 144 141 141 136 128 122 135 143 104
169 165 149 152 159 159 167 166 158 160 158 154 156 157 159 156 154 154 156 158 157 159 156 154 165 171 171 171 179 208 198 167 179 206 209 196 197 209 206 208 219 217 215 225 226 232 240 234 236 242 246 269 291 298 291 270 265 276 271 266 239 211 180 197 212 179 177 182 156 141 140 148 153 154 152 148 146 145 147 146 140 136 147 160 141
164 165 154 151 159 161 168 168 157 157 156 151 154 154 152 150 154 160 159 155 154 157 156 160 171 172 170 175 189 214 216 191 186 203 210 201 206 219 211 214 227 220 215 223 224 232 237 235 248 245 244 283 279 265 274 264 264 269 273 291 270 220 180 196 226 188 165 169 161 145 140 149 157 158 158 153 154 156 157 159 154 148 151 161 161
162 166 155 140 154 163 163 161 152 152 153 151 151 148 147 152 158 160 157 150 148 153 161 169 171 175 178 180 188 196 201 201 194 195 196 186 181 205 219 238 241 228 229 229 225 226 227 240 261 252 245 260 234 245 264 262 269 270 273 307 308 251 191 188 232 201 166 162 152 143 142 147 156 165 166 162 165 167 166 168 163 153 151 155 169
159 163 149 118 138 156 154 149 145 147 145 136 137 137 140 154 159 159 157 148 147 159 172 171 165 173 182 187 193 192 192 195 193 192 198 187 168 173 189 210 221 224 231 233 234 230 227 259 285 255 233 211 229 252 258 259 269 277 285 311 334 318 221 188 227 206 154 146 132 125 138 144 152 164 172 173 176 174 168 168 165 157 154 150 158
147 148 127 86 114 141 141 131 129 136 121 92 88 101 126 152 158 156 156 153 153 168 177 165 162 172 180 192 195 189 189 192 192 190 193 186 170 165 176 192 202 210 223 228 232 226 223 249 280 239 215 231 265 268 266 270 271 271 296 321 341 349 8 52 154 131 96 108 120 124 138 148 149 159 174 181 183 178 169 163 161 159 157 152 154
128 127 101 81 107 135 139 127 130 140 134 104 86 102 132 149 158 151 147 151 150 162 169 158 172 181 176 183 186 180 178 178 181 180 176 175 166 164 175 185 192 197 213 221 218 211 214 226 243 232 221 276 283 285 286 285 288 282 320 342 343 2 22 37 50 71 92 110 136 144 151 156 150 156 172 178 181 181 181 176 171 170 162 154 156
106 116 108 104 117 134 139 128 131 130 132 134 118 127 142 137 149 149 138 141 134 144 161 163 176 179 166 165 170 167 165 166 168 168 168 168 163 168 177 179 183 187 196 206 203 197 198 194 199 203 177 312 310 311 301 290 298 305 360 7 347 12 34 49 66 78 106 130 147 153 162 163 154 159 165 168 170 170 182 188 189 193 181 165 158
113 141 130 119 120 133 137 125 125 121 126 139 131 131 135 125 134 142 128 126 126 148 163 163 163 158 146 147 153 151 155 162 157 159 162 154 155 167 176 179 172 170 180 179 181 181 172 166 172 192 195 106 13 346 316 299 324 338 8 25 20 34 44 77 102 94 97 124 142 152 166 175 171 168 158 160 166 157 159 171 183 196 190 181 168
142 143 130 124 122 131 134 123 123 128 128 134 130 126 126 123 125 135 160 140 144 161 150 139 138 136 135 140 146 144 149 152 141 147 144 136 151 169 181 185 170 169 179 165 168 177 161 161 160 177 280 114 77 358 350 338 17 16 18 39 43 53 51 72 96 97 98 119 137 148 154 166 178 175 163 160 161 157 155 153 156 156 154 167 166
135 127 125 131 127 126 131 127 127 134 135 133 129 124 124 126 130 156 179 161 151 142 123 112 113 121 127 128 133 133 137 138 133 140 136 142 167 170 172 178 162 162 172 162 165 177 170 158 145 150 312 104 73 354 10 24 51 37 50 62 46 45 57 68 88 92 102 121 132 146 147 152 164 166 169 168 158 157 160 154 150 146 135 136 148
124 124 124 132 130 127 131 133 133 137 138 135 129 125 125 130 143 165 167 139 120 109 109 116 115 115 119 114 109 110 115 118 121 128 132 160 176 139 139 152 147 149 156 167 164 159 179 158 134 153 153 111 75 334 309 61 87 62 62 72 58 45 57 70 91 94 108 125 124 137 148 154 157 153 165 173 166 163 165 164 161 151 131 125 132
120 124 129 135 134 133 136 139 140 138 135 135 132 126 125 128 139 144 131 119 119 115 107 112 113 109 110 106 101 103 104 104 108 113 118 135 133 112 118 128 155 172 154 158 158 153 164 142 123 117 122 121 67 45 212 87 90 87 81 79 81 83 65 71 91 97 109 120 121 134 144 150 151 151 160 168 172 176 177 178 169 134 126 140 148
127 137 140 142 137 133 137 140 139 135 133 135 133 126 118 115 125 130 130 130 135 132 110 103 109 101 101 103 103 107 103 101 103 104 101 92 92 107 116 122 170 182 155 150 155 162 165 151 126 111 119 97 38 63 129 97 89 97 116 113 98 95 76 75 85 95 108 118 124 130 129 136 140 143 151 155 168 176 170 176 165 131 161 172 173
141 147 139 140 137 129 132 135 135 135 135 134 130 122 107 104 121 133 137 129 119 121 116 112 117 111 107 104 102 105 104 109 106 102 102 91 88 96 90 94 130 123 132 153 154 175 183 172 136 109 119 94 56 69 113 99 92 90 113 127 125 119 90 83 81 85 100 111 114 110 111 128 135 134 138 137 146 134 126 147 136 130 174 184 184
147 140 130 133 131 130 135 134 137 139 138 134 123 111 101 103 116 116 120 116 106 111 117 117 116 113 110 105 103 101 96 98 93 94 96 91 98 98 88 83 67 59 51 96 129 162 155 156 146 109 113 107 81 66 127 115 111 107 92 95 149 188 104 112 102 84 88 98 99 104 115 128 122 123 134 128 115 106 107 119 118 107 122 157 172
138 128 127 129 130 137 139 136 137 137 139 136 122 116 111 108 114 111 111 112 113 119 121 118 120 118 112 107 107 102 97 92 84 87 88 85 91 90 93 94 79 68 52 58 73 73 88 117 128 121 120 109 83 58 84 103 105 120 195 2 138 260 56 128 125 82 74 93 93 102 115 118 108 113 121 112 100 99 101 110 124 116 116 135 151
125 127 128 127 133 139 139 137 134 134 139 139 133 130 122 112 116 117 115 123 134 134 125 121 122 118 113 111 110 105 101 96 89 88 86 86 89 83 86 90 86 82 76 75 73 67 78 90 90 93 108 110 103 87 69 73 93 125 164 93 79 69 95 130 134 90 74 87 90 97 101 101 99 102 105 102 95 97 102 111 120 119 118 125 131
133 139 135 133 139 137 139 140 137 141 142 141 144 137 124 118 123 126 134 148 143 127 119 114 111 111 110 109 111 110 105 101 99 97 93 90 86 84 89 94 99 94 84 79 74 70 75 81 85 82 85 98 112 108 101 107 111 124 126 101 93 98 101 102 115 146 123 93 99 101 100 102 101 100 100 103 105 106 110 114 115 111 109 113 111
147 150 146 146 146 141 143 143 143 145 141 143 145 131 123 127 135 150 167 160 132 122 119 113 113 117 119 120 121 118 112 108 104 101 100 97 88 84 82 76 84 105 102 87 75 74 76 79 89 93 89 93 110 116 114 117 127 131 116 109 116 112 98 92 94 128 130 120 111 100 100 105 105 105 105 107 111 111 111 110 111 113 108 108 107
154 157 154 148 144 144 147 146 147 147 146 153 144 126 129 141 156 181 172 141 131 134 131 125 126 128 127 127 123 115 108 105 101 102 102 100 98 94 84 67 57 73 94 91 85 85 81 79 85 91 93 94 102 110 109 107 116 129 119 110 115 106 100 102 89 90 93 107 123 111 111 109 105 111 113 112 111 107 104 99 94 102 105 103 104
161 163 158 148 145 149 152 150 154 155 156 157 142 131 145 158 179 189 155 137 142 144 135 133 135 132 125 120 118 113 110 104 98 102 99 90 92 92 91 86 70 68 83 95 98 91 83 80 81 85 90 90 95 101 104 107 113 122 117 109 114 127 143 120 111 111 96 90 108 124 127 121 119 124 119 117 116 108 104 100 91 92 96 95 95
165 166 160 153 152 156 158 156 159 161 157 153 145 146 159 172 187 176 148 145 150 144 137 139 140 138 135 132 132 126 116 108 101 100 96 88 89 91 93 94 87 82 86 95 99 93 87 87 83 82 84 85 88 91 96 101 105 109 109 106 117 140 156 135 136 141 123 112 121 128 126 124 130 134 124 120 121 116 111 109 103 96 93 91 91